カタログに戻る

FENGYUN 1C DEB

運用中PO
NORAD 31348·DEBRIS·🇨🇳 China

打ち上げ May 10, 1999 から Taiyuan Satellite Launch Center

Loading…

次のパス (今後24時間)

TLE

最新Source: Space-Track

元期: Sep 14, 2026, 10:14 UTC

1 31348U 99025BRC 26257.42691516  .00002205  00000-0  77502-3 0  9993
2 31348  99.1483 229.2713 0033346 344.8120 169.3525 14.35740127  1952

AllMySatでFENGYUN 1C DEBをリアルタイム追跡

Download on the App Store